Time,TemperatureF,DewpointF,PressureIn,WindDirection,WindDirectionDegrees,WindSpeedMPH,WindSpeedGustMPH,Humidity,HourlyPrecipIn,Conditions,Clouds,dailyrainin,SoftwareType,DateUTC
2013-02-13 00:02:00,50.9,42.9,28.74,SSW,202,0.0,0.0,74,0.00,,,0.00,open2300-1.11,2013-02-12 22:02:00,
2013-02-13 00:07:00,50.9,42.9,28.75,SSW,202,0.0,0.0,74,0.00,,,0.00,open2300-1.11,2013-02-12 22:07:00,
2013-02-13 00:17:00,51.1,43.1,28.74,SSW,202,0.0,0.0,74,0.00,,,0.00,open2300-1.11,2013-02-12 22:17:00,
2013-02-13 00:22:00,50.9,42.9,28.74,SSW,202,0.0,0.0,74,0.00,,,0.00,open2300-1.11,2013-02-12 22:22:00,
2013-02-13 00:27:00,51.1,42.8,28.75,SSW,202,0.0,0.0,73,0.00,,,0.00,open2300-1.11,2013-02-12 22:27:00,
2013-02-13 00:37:00,51.1,42.8,28.74,SSW,202,0.0,0.0,73,0.00,,,0.00,open2300-1.11,2013-02-12 22:37:00,
2013-02-13 00:47:00,50.9,42.2,28.74,SSW,202,0.0,0.0,72,0.00,,,0.00,open2300-1.11,2013-02-12 22:47:00,
2013-02-13 00:57:00,50.9,42.2,28.74,SSW,202,0.0,0.0,72,0.00,,,0.00,open2300-1.11,2013-02-12 22:57:00,
2013-02-13 01:07:00,50.9,42.2,28.74,SSW,202,0.0,0.0,72,0.00,,,0.00,open2300-1.11,2013-02-12 23:07:00,
2013-02-13 01:12:00,50.9,42.2,28.75,South,180,0.0,0.0,72,0.00,,,0.00,open2300-1.11,2013-02-12 23:12:00,
2013-02-13 01:17:00,50.9,42.2,28.75,South,180,0.0,0.0,72,0.00,,,0.00,open2300-1.11,2013-02-12 23:17:00,
2013-02-13 01:27:00,50.9,42.2,28.74,SW,225,0.0,0.0,72,0.00,,,0.00,open2300-1.11,2013-02-12 23:27:00,
2013-02-13 01:32:00,50.9,42.2,28.74,SW,225,0.0,0.0,72,0.00,,,0.00,open2300-1.11,2013-02-12 23:32:00,
2013-02-13 01:42:00,50.9,42.2,28.74,SW,225,0.0,0.0,72,0.00,,,0.00,open2300-1.11,2013-02-12 23:42:00,
2013-02-13 01:47:00,50.7,42.0,28.74,SSW,202,0.0,0.0,72,0.00,,,0.00,open2300-1.11,2013-02-12 23:47:00,
2013-02-13 01:52:00,50.7,42.0,28.74,SSW,202,0.0,0.0,72,0.00,,,0.00,open2300-1.11,2013-02-12 23:52:00,
2013-02-13 01:57:00,50.9,42.2,28.74,SSW,202,0.0,0.0,72,0.00,,,0.00,open2300-1.11,2013-02-12 23:57:00,
2013-02-13 02:02:00,50.9,42.2,28.74,SSW,202,0.0,0.0,72,0.00,,,0.00,open2300-1.11,2013-02-13 00:02:00,
2013-02-13 02:07:00,50.9,42.2,28.74,SSW,202,0.0,0.0,72,0.00,,,0.00,open2300-1.11,2013-02-13 00:07:00,
2013-02-13 02:17:00,51.1,42.4,28.74,South,180,0.0,0.0,72,0.00,,,0.00,open2300-1.11,2013-02-13 00:17:00,
2013-02-13 02:22:00,51.3,42.6,28.73,South,180,0.0,0.0,72,0.00,,,0.00,open2300-1.11,2013-02-13 00:22:00,
2013-02-13 02:32:00,51.4,42.8,28.73,South,180,0.0,0.0,72,0.00,,,0.00,open2300-1.11,2013-02-13 00:32:00,
2013-02-13 02:37:00,51.4,42.8,28.73,South,180,0.0,0.0,72,0.00,,,0.00,open2300-1.11,2013-02-13 00:37:00,
2013-02-13 02:42:00,51.3,42.6,28.73,South,180,0.0,0.0,72,0.00,,,0.00,open2300-1.11,2013-02-13 00:42:00,
2013-02-13 02:52:00,51.3,42.6,28.73,South,180,0.0,0.0,72,0.00,,,0.00,open2300-1.11,2013-02-13 00:52:00,
2013-02-13 02:57:00,51.3,42.6,28.72,South,180,0.0,0.0,72,0.00,,,0.00,open2300-1.11,2013-02-13 00:57:00,
2013-02-13 03:02:00,51.3,42.6,28.72,South,180,0.0,0.0,72,0.00,,,0.00,open2300-1.11,2013-02-13 01:02:00,
2013-02-13 03:12:00,51.3,42.6,28.72,South,180,0.0,0.0,72,0.00,,,0.00,open2300-1.11,2013-02-13 01:12:00,
2013-02-13 03:17:00,51.3,42.6,28.72,South,180,0.0,0.0,72,0.00,,,0.00,open2300-1.11,2013-02-13 01:17:00,
2013-02-13 03:27:00,51.1,42.4,28.71,South,180,0.0,0.0,72,0.00,,,0.00,open2300-1.11,2013-02-13 01:27:00,
2013-02-13 03:32:00,51.1,42.8,28.71,South,180,0.0,0.0,73,0.00,,,0.00,open2300-1.11,2013-02-13 01:32:00,
2013-02-13 03:37:00,51.1,42.8,28.71,South,180,0.0,0.0,73,0.00,,,0.00,open2300-1.11,2013-02-13 01:37:00,
2013-02-13 03:47:00,50.9,42.6,28.70,South,180,0.0,0.0,73,0.00,,,0.00,open2300-1.11,2013-02-13 01:47:00,
2013-02-13 03:52:00,50.9,42.6,28.70,South,180,0.0,0.0,73,0.00,,,0.00,open2300-1.11,2013-02-13 01:52:00,
2013-02-13 03:57:00,50.9,42.9,28.70,South,180,0.0,0.0,74,0.00,,,0.00,open2300-1.11,2013-02-13 01:57:00,
2013-02-13 04:03:00,50.9,42.9,28.69,South,180,0.0,0.0,74,0.00,,,0.00,open2300-1.11,2013-02-13 02:03:00,
2013-02-13 04:12:00,51.1,43.4,28.69,South,180,0.0,0.0,75,0.00,,,0.00,open2300-1.11,2013-02-13 02:12:00,
2013-02-13 04:17:00,51.1,43.1,28.69,South,180,0.0,0.0,74,0.00,,,0.00,open2300-1.11,2013-02-13 02:17:00,
2013-02-13 04:22:00,51.1,43.1,28.68,South,180,0.0,0.0,74,0.00,,,0.00,open2300-1.11,2013-02-13 02:22:00,
2013-02-13 04:27:00,51.1,43.1,28.68,South,180,0.0,0.0,74,0.00,,,0.00,open2300-1.11,2013-02-13 02:27:00,
2013-02-13 04:37:00,51.1,43.1,28.67,South,180,0.0,0.0,74,0.00,,,0.00,open2300-1.11,2013-02-13 02:37:00,
2013-02-13 04:43:00,51.1,43.1,28.67,South,180,0.0,0.0,74,0.00,,,0.00,open2300-1.11,2013-02-13 02:43:00,
2013-02-13 04:52:00,51.3,42.9,28.67,South,180,0.0,0.0,73,0.00,,,0.00,open2300-1.11,2013-02-13 02:52:00,
2013-02-13 05:02:00,51.1,43.1,28.67,South,180,0.0,0.0,74,0.00,,,0.00,open2300-1.11,2013-02-13 03:02:00,
2013-02-13 05:07:00,51.1,43.1,28.67,South,180,0.0,0.0,74,0.00,,,0.00,open2300-1.11,2013-02-13 03:07:00,
2013-02-13 05:17:00,50.9,42.9,28.67,South,180,0.0,0.0,74,0.00,,,0.00,open2300-1.11,2013-02-13 03:17:00,
2013-02-13 05:22:00,50.9,42.9,28.67,South,180,0.0,0.0,74,0.00,,,0.00,open2300-1.11,2013-02-13 03:22:00,
2013-02-13 05:27:00,50.9,42.9,28.67,South,180,0.0,0.0,74,0.00,,,0.00,open2300-1.11,2013-02-13 03:27:00,
2013-02-13 05:37:00,50.9,42.9,28.67,South,180,0.0,0.0,74,0.00,,,0.00,open2300-1.11,2013-02-13 03:37:00,
2013-02-13 05:42:00,50.9,42.9,28.67,South,180,0.0,0.0,74,0.00,,,0.00,open2300-1.11,2013-02-13 03:42:00,
2013-02-13 05:47:00,50.9,43.2,28.67,South,180,0.0,0.0,75,0.00,,,0.00,open2300-1.11,2013-02-13 03:47:00,
2013-02-13 05:57:00,50.9,43.2,28.67,SSW,202,0.0,0.0,75,0.00,,,0.00,open2300-1.11,2013-02-13 03:57:00,
2013-02-13 06:02:00,50.9,43.6,28.67,South,180,0.0,0.0,76,0.00,,,0.00,open2300-1.11,2013-02-13 04:02:00,
2013-02-13 06:12:00,51.1,43.8,28.66,WSW,247,0.0,0.0,76,0.00,,,0.00,open2300-1.11,2013-02-13 04:12:00,
2013-02-13 06:22:00,51.1,44.1,28.66,SSW,202,0.0,0.0,77,0.00,,,0.00,open2300-1.11,2013-02-13 04:22:00,
2013-02-13 06:27:00,51.1,44.1,28.66,SSW,202,0.0,0.0,77,0.00,,,0.00,open2300-1.11,2013-02-13 04:27:00,
2013-02-13 06:32:00,51.1,44.1,28.66,South,180,0.0,0.0,77,0.00,,,0.00,open2300-1.11,2013-02-13 04:32:00,
2013-02-13 06:42:00,51.1,44.1,28.65,South,180,0.0,0.0,77,0.00,,,0.00,open2300-1.11,2013-02-13 04:42:00,
2013-02-13 06:47:00,51.1,43.8,28.65,South,180,0.0,0.0,76,0.00,,,0.00,open2300-1.11,2013-02-13 04:47:00,
2013-02-13 06:52:00,51.1,43.8,28.65,South,180,0.0,0.0,76,0.00,,,0.00,open2300-1.11,2013-02-13 04:52:00,
2013-02-13 06:59:00,51.1,43.4,28.65,SSW,202,0.0,0.0,75,0.00,,,0.00,open2300-1.11,2013-02-13 04:59:00,
2013-02-13 07:02:00,51.1,43.4,28.65,South,180,0.0,0.0,75,0.00,,,0.00,open2300-1.11,2013-02-13 05:02:00,
2013-02-13 07:07:00,51.1,43.1,28.65,South,180,0.0,0.0,74,0.00,,,0.00,open2300-1.11,2013-02-13 05:07:00,
2013-02-13 07:12:00,51.3,42.9,28.64,South,180,0.0,1.1,73,0.00,,,0.00,open2300-1.11,2013-02-13 05:12:00,
2013-02-13 07:22:00,51.4,42.8,28.65,South,180,0.0,0.0,72,0.00,,,0.00,open2300-1.11,2013-02-13 05:22:00,
2013-02-13 07:27:00,51.6,42.9,28.65,South,180,0.0,0.0,72,0.00,,,0.00,open2300-1.11,2013-02-13 05:27:00,
2013-02-13 07:37:00,51.6,42.9,28.65,South,180,0.0,0.0,72,0.00,,,0.00,open2300-1.11,2013-02-13 05:37:00,
2013-02-13 07:47:00,52.0,43.3,28.65,SSW,202,0.0,0.0,72,0.00,,,0.00,open2300-1.11,2013-02-13 05:47:00,
2013-02-13 07:52:00,51.8,43.1,28.65,SSW,202,0.0,0.0,72,0.00,,,0.00,open2300-1.11,2013-02-13 05:52:00,
2013-02-13 07:57:00,52.0,42.9,28.65,South,180,0.0,0.0,71,0.00,,,0.00,open2300-1.11,2013-02-13 05:57:00,
2013-02-13 08:07:00,52.0,42.9,28.65,South,180,0.0,0.0,71,0.00,,,0.00,open2300-1.11,2013-02-13 06:07:00,
2013-02-13 08:12:00,52.2,43.1,28.64,South,180,0.0,0.0,71,0.00,,,0.00,open2300-1.11,2013-02-13 06:12:00,
2013-02-13 08:17:00,52.2,43.1,28.65,SW,225,0.0,0.0,71,0.00,,,0.00,open2300-1.11,2013-02-13 06:17:00,
2013-02-13 08:22:00,52.3,43.3,28.65,South,180,0.0,0.0,71,0.00,,,0.00,open2300-1.11,2013-02-13 06:22:00,
2013-02-13 08:27:00,52.3,43.3,28.64,East,90,0.0,0.0,71,0.00,,,0.00,open2300-1.11,2013-02-13 06:27:00,
2013-02-13 08:32:00,52.5,43.1,28.65,SE,135,0.0,1.8,70,0.00,,,0.00,open2300-1.11,2013-02-13 06:32:00,
2013-02-13 08:42:00,52.5,43.4,28.65,SSE,157,0.0,0.0,71,0.00,,,0.00,open2300-1.11,2013-02-13 06:42:00,
2013-02-13 08:47:00,52.5,43.4,28.64,SSE,157,0.0,0.0,71,0.00,,,0.00,open2300-1.11,2013-02-13 06:47:00,
2013-02-13 08:52:00,52.7,43.2,28.65,East,90,0.0,0.0,70,0.00,,,0.00,open2300-1.11,2013-02-13 06:52:00,
2013-02-13 08:57:00,52.9,43.8,28.64,ESE,112,0.0,0.0,71,0.00,,,0.00,open2300-1.11,2013-02-13 06:57:00,
2013-02-13 09:02:00,52.9,43.8,28.64,SE,135,0.0,0.0,71,0.00,,,0.00,open2300-1.11,2013-02-13 07:02:00,
2013-02-13 09:07:00,52.9,43.4,28.64,SSE,157,1.3,1.3,70,0.00,,,0.00,open2300-1.11,2013-02-13 07:07:00,
2013-02-13 09:17:00,53.2,43.7,28.65,SE,135,0.0,1.3,70,0.00,,,0.00,open2300-1.11,2013-02-13 07:17:00,
2013-02-13 09:27:00,53.2,44.4,28.65,SSE,157,0.0,0.0,72,0.00,,,0.00,open2300-1.11,2013-02-13 07:27:00,
2013-02-13 09:32:00,52.9,44.1,28.66,ESE,112,0.0,0.0,72,0.00,,,0.00,open2300-1.11,2013-02-13 07:32:00,
2013-02-13 09:37:00,52.9,44.5,28.65,SSE,157,0.0,0.0,73,0.00,,,0.00,open2300-1.11,2013-02-13 07:37:00,
2013-02-13 09:42:00,52.5,44.5,28.65,SSE,157,0.0,0.0,74,0.00,,,0.00,open2300-1.11,2013-02-13 07:42:00,
2013-02-13 09:47:00,52.5,44.5,28.65,SSE,157,0.0,0.0,74,0.00,,,0.00,open2300-1.11,2013-02-13 07:47:00,
2013-02-13 09:52:00,52.5,44.5,28.65,ESE,112,0.0,0.0,74,0.00,,,0.00,open2300-1.11,2013-02-13 07:52:00,
2013-02-13 10:02:00,52.7,44.7,28.65,SSW,202,0.0,0.0,74,0.00,,,0.00,open2300-1.11,2013-02-13 08:02:00,
2013-02-13 10:07:00,52.9,44.5,28.66,SE,135,0.0,4.5,73,0.00,,,0.00,open2300-1.11,2013-02-13 08:07:00,
2013-02-13 10:12:00,52.9,44.1,28.65,SE,135,0.9,0.9,72,0.00,,,0.00,open2300-1.11,2013-02-13 08:12:00,
2013-02-13 10:17:00,52.9,44.1,28.66,South,180,0.0,0.9,72,0.00,,,0.00,open2300-1.11,2013-02-13 08:17:00,
2013-02-13 10:27:00,53.2,43.3,28.66,South,180,0.0,0.0,69,0.00,,,0.00,open2300-1.11,2013-02-13 08:27:00,
2013-02-13 10:32:00,53.2,43.7,28.66,South,180,0.0,0.0,70,0.00,,,0.00,open2300-1.11,2013-02-13 08:32:00,
2013-02-13 10:37:00,53.2,43.7,28.66,SSW,202,0.0,0.0,70,0.00,,,0.00,open2300-1.11,2013-02-13 08:37:00,
2013-02-13 10:42:00,53.2,43.7,28.66,South,180,0.0,0.0,70,0.00,,,0.00,open2300-1.11,2013-02-13 08:42:00,
2013-02-13 10:47:00,53.4,43.9,28.66,South,180,0.0,0.0,70,0.00,,,0.00,open2300-1.11,2013-02-13 08:47:00,
2013-02-13 10:57:00,54.0,44.8,28.65,South,180,0.0,0.0,71,0.00,,,0.00,open2300-1.11,2013-02-13 08:57:00,
2013-02-13 11:07:00,54.1,44.9,28.65,South,180,0.0,0.0,71,0.00,,,0.00,open2300-1.11,2013-02-13 09:07:00,
2013-02-13 11:17:00,54.5,45.3,28.65,South,180,0.0,0.0,71,0.00,,,0.00,open2300-1.11,2013-02-13 09:17:00,
2013-02-13 11:22:00,54.7,45.5,28.65,South,180,0.0,0.0,71,0.00,,,0.00,open2300-1.11,2013-02-13 09:22:00,
2013-02-13 11:32:00,54.9,45.3,28.64,SSE,157,0.0,0.0,70,0.00,,,0.00,open2300-1.11,2013-02-13 09:32:00,
2013-02-13 11:42:00,54.9,45.3,28.66,South,180,0.0,3.6,70,0.00,,,0.00,open2300-1.11,2013-02-13 09:42:00,
2013-02-13 11:47:00,54.7,45.1,28.69,South,180,4.7,4.7,70,0.00,,,0.00,open2300-1.11,2013-02-13 09:47:00,
2013-02-13 11:52:00,53.8,44.6,28.70,West,270,3.8,4.7,71,0.00,,,0.00,open2300-1.11,2013-02-13 09:52:00,
2013-02-13 11:57:00,50.9,42.6,28.69,SW,225,0.0,3.8,73,0.08,,,0.08,open2300-1.11,2013-02-13 09:57:00,
2013-02-13 12:07:00,49.1,41.8,28.69,SW,225,0.0,0.0,76,0.10,,,0.10,open2300-1.11,2013-02-13 10:07:00,
2013-02-13 12:17:00,48.0,41.4,28.68,SW,225,0.0,0.0,78,0.12,,,0.12,open2300-1.11,2013-02-13 10:17:00,
2013-02-13 12:22:00,47.8,41.6,28.66,SW,225,0.0,0.0,79,0.14,,,0.14,open2300-1.11,2013-02-13 10:22:00,
2013-02-13 12:27:00,47.7,41.8,28.65,SW,225,0.0,0.0,80,0.14,,,0.14,open2300-1.11,2013-02-13 10:27:00,
2013-02-13 12:32:00,47.7,42.1,28.65,SW,225,0.0,0.0,81,0.14,,,0.14,open2300-1.11,2013-02-13 10:32:00,
2013-02-13 12:43:00,47.1,41.9,28.64,SW,225,0.0,0.0,82,0.14,,,0.14,open2300-1.11,2013-02-13 10:43:00,
2013-02-13 12:52:00,47.1,42.2,28.63,NNE,22,0.0,0.0,83,0.06,,,0.14,open2300-1.11,2013-02-13 10:52:00,
2013-02-13 13:02:00,47.3,42.7,28.63,NNE,22,0.0,0.0,84,0.04,,,0.14,open2300-1.11,2013-02-13 11:02:00,
2013-02-13 13:07:00,47.5,43.2,28.63,NE,45,0.0,0.0,85,0.04,,,0.14,open2300-1.11,2013-02-13 11:07:00,
2013-02-13 13:12:00,47.5,43.2,28.64,NNE,22,0.0,0.0,85,0.02,,,0.14,open2300-1.11,2013-02-13 11:12:00,
2013-02-13 13:17:00,47.5,43.2,28.66,NNE,22,0.0,0.0,85,0.00,,,0.14,open2300-1.11,2013-02-13 11:17:00,
2013-02-13 13:22:00,47.5,43.5,28.67,SW,225,5.8,5.8,86,0.02,,,0.16,open2300-1.11,2013-02-13 11:22:00,
2013-02-13 13:27:00,46.9,42.7,28.69,SW,225,0.0,5.8,85,0.14,,,0.29,open2300-1.11,2013-02-13 11:27:00,
2013-02-13 13:32:00,46.2,42.0,28.69,SW,225,0.0,0.0,85,0.14,,,0.29,open2300-1.11,2013-02-13 11:32:00,
2013-02-13 13:37:00,46.0,41.8,28.68,SW,225,0.0,0.0,85,0.16,,,0.31,open2300-1.11,2013-02-13 11:37:00,
2013-02-13 13:47:00,45.9,41.9,28.68,SW,225,0.0,0.0,86,0.16,,,0.31,open2300-1.11,2013-02-13 11:47:00,
2013-02-13 13:52:00,45.7,41.8,28.68,SW,225,0.0,0.0,86,0.16,,,0.31,open2300-1.11,2013-02-13 11:52:00,
2013-02-13 13:57:00,45.7,41.8,28.67,SW,225,0.0,0.0,86,0.16,,,0.31,open2300-1.11,2013-02-13 11:57:00,
2013-02-13 14:02:00,45.7,41.8,28.67,SW,225,0.0,0.0,86,0.18,,,0.33,open2300-1.11,2013-02-13 12:02:00,
2013-02-13 14:07:00,45.9,41.9,28.67,SW,225,0.0,0.0,86,0.18,,,0.33,open2300-1.11,2013-02-13 12:07:00,
2013-02-13 14:12:00,46.0,42.1,28.67,SW,225,0.0,0.0,86,0.18,,,0.33,open2300-1.11,2013-02-13 12:12:00,
2013-02-13 14:17:00,46.0,42.1,28.66,SW,225,0.0,0.0,86,0.18,,,0.33,open2300-1.11,2013-02-13 12:17:00,
2013-02-13 14:22:00,46.2,42.3,28.65,SW,225,0.0,0.0,86,0.16,,,0.33,open2300-1.11,2013-02-13 12:22:00,
2013-02-13 14:27:00,46.2,42.3,28.65,SW,225,0.0,0.0,86,0.04,,,0.33,open2300-1.11,2013-02-13 12:27:00,
2013-02-13 14:32:00,46.4,42.8,28.65,SW,225,0.0,0.0,87,0.02,,,0.33,open2300-1.11,2013-02-13 12:32:00,
2013-02-13 14:42:00,46.2,42.6,28.66,SW,225,0.0,0.0,87,0.02,,,0.33,open2300-1.11,2013-02-13 12:42:00,
2013-02-13 14:52:00,46.2,42.6,28.66,SW,225,0.0,0.0,87,0.04,,,0.35,open2300-1.11,2013-02-13 12:52:00,
2013-02-13 14:57:00,46.2,42.6,28.65,SW,225,0.0,0.0,87,0.04,,,0.35,open2300-1.11,2013-02-13 12:57:00,
2013-02-13 15:02:00,46.4,42.8,28.65,SW,225,0.0,0.0,87,0.02,,,0.35,open2300-1.11,2013-02-13 13:02:00,
2013-02-13 15:07:00,46.6,42.9,28.66,SW,225,0.0,0.0,87,0.02,,,0.35,open2300-1.11,2013-02-13 13:07:00,
2013-02-13 15:17:00,46.8,43.1,28.65,SW,225,0.0,0.0,87,0.02,,,0.35,open2300-1.11,2013-02-13 13:17:00,
2013-02-13 15:27:00,46.9,43.6,28.66,WSW,247,0.0,0.0,88,0.04,,,0.37,open2300-1.11,2013-02-13 13:27:00,
2013-02-13 15:32:00,46.9,43.6,28.66,North,0,0.0,0.0,88,0.04,,,0.37,open2300-1.11,2013-02-13 13:32:00,
2013-02-13 15:37:00,47.1,43.8,28.65,SW,225,0.0,0.0,88,0.04,,,0.37,open2300-1.11,2013-02-13 13:37:00,
2013-02-13 15:43:00,47.1,43.8,28.65,SW,225,0.0,0.0,88,0.04,,,0.37,open2300-1.11,2013-02-13 13:43:00,
2013-02-13 15:52:00,47.3,44.0,28.65,SW,225,0.0,0.0,88,0.02,,,0.37,open2300-1.11,2013-02-13 13:52:00,
2013-02-13 15:57:00,47.5,44.1,28.65,SW,225,0.0,0.0,88,0.02,,,0.37,open2300-1.11,2013-02-13 13:57:00,
2013-02-13 16:02:00,47.7,44.3,28.66,SW,225,0.0,0.0,88,0.02,,,0.37,open2300-1.11,2013-02-13 14:02:00,
2013-02-13 16:07:00,47.8,44.5,28.66,SW,225,0.0,0.0,88,0.02,,,0.37,open2300-1.11,2013-02-13 14:07:00,
2013-02-13 16:12:00,47.8,44.5,28.66,SW,225,0.0,0.0,88,0.02,,,0.37,open2300-1.11,2013-02-13 14:12:00,
2013-02-13 16:22:00,48.0,44.7,28.66,North,0,0.0,0.0,88,0.00,,,0.37,open2300-1.11,2013-02-13 14:22:00,
2013-02-13 16:27:00,48.0,44.7,28.65,NNE,22,0.0,0.0,88,0.00,,,0.37,open2300-1.11,2013-02-13 14:27:00,
2013-02-13 16:32:00,48.0,44.7,28.65,NNE,22,0.0,0.0,88,0.00,,,0.37,open2300-1.11,2013-02-13 14:32:00,
2013-02-13 16:37:00,48.0,44.7,28.65,WNW,292,0.0,0.0,88,0.00,,,0.37,open2300-1.11,2013-02-13 14:37:00,
2013-02-13 16:43:00,48.2,44.8,28.65,WSW,247,0.0,0.0,88,0.00,,,0.37,open2300-1.11,2013-02-13 14:43:00,
2013-02-13 16:52:00,48.7,45.3,28.65,South,180,0.0,0.0,88,0.00,,,0.37,open2300-1.11,2013-02-13 14:52:00,
2013-02-13 16:57:00,48.9,45.5,28.65,South,180,0.0,0.0,88,0.00,,,0.37,open2300-1.11,2013-02-13 14:57:00,
2013-02-13 17:02:00,49.3,46.2,28.65,SSW,202,0.0,0.0,89,0.00,,,0.37,open2300-1.11,2013-02-13 15:02:00,
2013-02-13 17:07:00,49.3,45.8,28.64,SSE,157,0.0,0.0,88,0.00,,,0.37,open2300-1.11,2013-02-13 15:07:00,
2013-02-13 17:17:00,49.6,45.9,28.64,SW,225,0.0,0.0,87,0.00,,,0.37,open2300-1.11,2013-02-13 15:17:00,
2013-02-13 17:22:00,49.6,45.9,28.64,SSE,157,0.0,0.0,87,0.00,,,0.37,open2300-1.11,2013-02-13 15:22:00,
2013-02-13 17:27:00,49.6,45.9,28.64,SSE,157,0.0,0.0,87,0.00,,,0.37,open2300-1.11,2013-02-13 15:27:00,
2013-02-13 17:34:00,49.6,45.9,28.64,SSE,157,0.0,0.0,87,0.00,,,0.37,open2300-1.11,2013-02-13 15:34:00,
2013-02-13 17:42:00,49.6,45.9,28.64,SW,225,0.0,0.0,87,0.00,,,0.37,open2300-1.11,2013-02-13 15:42:00,
2013-02-13 17:47:00,49.6,45.9,28.65,SW,225,0.0,0.0,87,0.00,,,0.37,open2300-1.11,2013-02-13 15:47:00,
2013-02-13 17:52:00,49.5,45.7,28.65,NNE,22,0.0,0.0,87,0.00,,,0.37,open2300-1.11,2013-02-13 15:52:00,
2013-02-13 17:57:00,49.6,45.9,28.65,NNE,22,0.0,0.0,87,0.00,,,0.37,open2300-1.11,2013-02-13 15:57:00,
2013-02-13 18:07:00,49.3,45.5,28.64,NNE,22,0.0,0.0,87,0.00,,,0.37,open2300-1.11,2013-02-13 16:07:00,
2013-02-13 18:17:00,49.3,45.5,28.65,NNE,22,0.0,0.0,87,0.00,,,0.37,open2300-1.11,2013-02-13 16:17:00,
2013-02-13 18:23:00,49.1,45.4,28.65,NNE,22,0.0,2.2,87,0.00,,,0.37,open2300-1.11,2013-02-13 16:23:00,
2013-02-13 18:32:00,49.1,45.4,28.65,NNE,22,0.0,0.0,87,0.00,,,0.37,open2300-1.11,2013-02-13 16:32:00,
2013-02-13 18:37:00,48.9,45.2,28.65,NNE,22,0.0,0.0,87,0.00,,,0.37,open2300-1.11,2013-02-13 16:37:00,
2013-02-13 18:42:00,48.9,45.2,28.65,NNE,22,0.0,0.0,87,0.00,,,0.37,open2300-1.11,2013-02-13 16:42:00,
2013-02-13 18:47:00,48.7,45.0,28.65,NNE,22,0.0,0.0,87,0.00,,,0.37,open2300-1.11,2013-02-13 16:47:00,
2013-02-13 18:57:00,48.7,45.0,28.65,NNE,22,0.0,0.0,87,0.00,,,0.37,open2300-1.11,2013-02-13 16:57:00,
2013-02-13 19:02:00,48.7,45.3,28.65,NNE,22,0.0,0.0,88,0.00,,,0.37,open2300-1.11,2013-02-13 17:02:00,
2013-02-13 19:07:00,48.9,45.5,28.65,NNE,22,0.0,0.0,88,0.00,,,0.37,open2300-1.11,2013-02-13 17:07:00,
2013-02-13 19:13:00,48.9,45.5,28.65,NNE,22,0.0,0.0,88,0.00,,,0.37,open2300-1.11,2013-02-13 17:13:00,
2013-02-13 19:22:00,49.1,45.7,28.65,NE,45,0.0,0.0,88,0.00,,,0.37,open2300-1.11,2013-02-13 17:22:00,
2013-02-13 19:27:00,49.1,45.7,28.65,NE,45,0.0,0.0,88,0.00,,,0.37,open2300-1.11,2013-02-13 17:27:00,
2013-02-13 19:32:00,49.3,45.5,28.65,NE,45,0.0,0.0,87,0.00,,,0.37,open2300-1.11,2013-02-13 17:32:00,
2013-02-13 19:37:00,49.3,45.5,28.65,NE,45,0.0,0.0,87,0.00,,,0.37,open2300-1.11,2013-02-13 17:37:00,
2013-02-13 19:47:00,49.3,45.5,28.65,NE,45,0.0,0.0,87,0.00,,,0.37,open2300-1.11,2013-02-13 17:47:00,
2013-02-13 19:52:00,49.6,45.9,28.66,NE,45,0.0,0.0,87,0.00,,,0.37,open2300-1.11,2013-02-13 17:52:00,
2013-02-13 19:58:00,49.6,45.9,28.66,SE,135,0.0,0.0,87,0.00,,,0.37,open2300-1.11,2013-02-13 17:58:00,
2013-02-13 20:07:00,49.8,46.0,28.65,SE,135,0.0,0.0,87,0.00,,,0.37,open2300-1.11,2013-02-13 18:07:00,
2013-02-13 20:17:00,50.2,46.4,28.65,SSW,202,0.0,0.0,87,0.00,,,0.37,open2300-1.11,2013-02-13 18:17:00,
2013-02-13 20:22:00,50.4,46.6,28.65,SSW,202,0.0,0.0,87,0.00,,,0.37,open2300-1.11,2013-02-13 18:22:00,
2013-02-13 20:32:00,50.5,46.4,28.66,South,180,0.0,0.0,86,0.00,,,0.37,open2300-1.11,2013-02-13 18:32:00,
2013-02-13 20:37:00,50.5,46.1,28.66,SSE,157,0.0,0.0,85,0.00,,,0.37,open2300-1.11,2013-02-13 18:37:00,
2013-02-13 20:43:00,50.5,46.1,28.66,SSE,157,0.0,0.0,85,0.00,,,0.37,open2300-1.11,2013-02-13 18:43:00,
2013-02-13 20:52:00,50.4,45.6,28.66,WSW,247,0.0,0.0,84,0.00,,,0.37,open2300-1.11,2013-02-13 18:52:00,
2013-02-13 20:57:00,50.4,45.6,28.66,South,180,0.0,0.0,84,0.00,,,0.37,open2300-1.11,2013-02-13 18:57:00,
2013-02-13 21:02:00,50.4,45.6,28.66,South,180,0.0,0.0,84,0.00,,,0.37,open2300-1.11,2013-02-13 19:02:00,
2013-02-13 21:07:00,50.4,45.6,28.66,South,180,0.0,0.0,84,0.00,,,0.37,open2300-1.11,2013-02-13 19:07:00,
2013-02-13 21:12:00,50.4,45.6,28.66,South,180,0.0,0.0,84,0.00,,,0.37,open2300-1.11,2013-02-13 19:12:00,
2013-02-13 21:17:00,50.2,45.2,28.66,SW,225,0.0,0.0,83,0.00,,,0.37,open2300-1.11,2013-02-13 19:17:00,
2013-02-13 21:27:00,50.4,45.3,28.66,SW,225,0.0,0.0,83,0.00,,,0.37,open2300-1.11,2013-02-13 19:27:00,
2013-02-13 21:32:00,50.4,45.3,28.67,SSW,202,0.0,0.0,83,0.00,,,0.37,open2300-1.11,2013-02-13 19:32:00,
2013-02-13 21:37:00,50.4,45.3,28.66,South,180,0.0,0.0,83,0.00,,,0.37,open2300-1.11,2013-02-13 19:37:00,
2013-02-13 21:43:00,50.4,45.3,28.66,SW,225,0.0,0.0,83,0.00,,,0.37,open2300-1.11,2013-02-13 19:43:00,
2013-02-13 21:52:00,50.5,45.5,28.66,West,270,0.0,0.0,83,0.00,,,0.37,open2300-1.11,2013-02-13 19:52:00,
2013-02-13 22:02:00,50.4,45.0,28.66,SSW,202,0.0,0.0,82,0.00,,,0.37,open2300-1.11,2013-02-13 20:02:00,
2013-02-13 22:07:00,50.4,45.0,28.67,WSW,247,0.0,0.0,82,0.00,,,0.37,open2300-1.11,2013-02-13 20:07:00,
2013-02-13 22:12:00,50.4,45.0,28.67,SW,225,0.0,0.0,82,0.00,,,0.37,open2300-1.11,2013-02-13 20:12:00,
2013-02-13 22:22:00,50.4,45.0,28.67,SW,225,0.0,0.0,82,0.00,,,0.37,open2300-1.11,2013-02-13 20:22:00,
2013-02-13 22:27:00,50.2,44.8,28.66,SW,225,0.0,0.0,82,0.00,,,0.37,open2300-1.11,2013-02-13 20:27:00,
2013-02-13 22:32:00,50.2,45.2,28.67,SW,225,0.0,0.0,83,0.00,,,0.37,open2300-1.11,2013-02-13 20:32:00,
2013-02-13 22:37:00,50.2,45.2,28.66,WSW,247,0.0,0.0,83,0.00,,,0.37,open2300-1.11,2013-02-13 20:37:00,
2013-02-13 22:47:00,50.2,45.2,28.66,SW,225,0.0,0.0,83,0.00,,,0.37,open2300-1.11,2013-02-13 20:47:00,
2013-02-13 22:52:00,50.2,45.2,28.67,SW,225,0.0,0.0,83,0.00,,,0.37,open2300-1.11,2013-02-13 20:52:00,
2013-02-13 22:57:00,50.2,45.2,28.67,SW,225,0.0,0.0,83,0.00,,,0.37,open2300-1.11,2013-02-13 20:57:00,
2013-02-13 23:02:00,50.2,45.2,28.66,SW,225,0.0,0.0,83,0.00,,,0.37,open2300-1.11,2013-02-13 21:02:00,
2013-02-13 23:07:00,50.2,45.2,28.67,SW,225,0.0,0.0,83,0.00,,,0.37,open2300-1.11,2013-02-13 21:07:00,
2013-02-13 23:17:00,50.2,45.2,28.67,SW,225,0.0,0.0,83,0.00,,,0.37,open2300-1.11,2013-02-13 21:17:00,
2013-02-13 23:22:00,50.2,45.2,28.67,SW,225,0.0,0.0,83,0.00,,,0.37,open2300-1.11,2013-02-13 21:22:00,
2013-02-13 23:27:00,50.4,45.6,28.67,SSW,202,0.0,0.0,84,0.00,,,0.37,open2300-1.11,2013-02-13 21:27:00,
2013-02-13 23:37:00,50.4,45.6,28.66,SSE,157,0.0,0.0,84,0.00,,,0.37,open2300-1.11,2013-02-13 21:37:00,
2013-02-13 23:42:00,50.5,45.5,28.66,West,270,0.0,0.0,83,0.00,,,0.37,open2300-1.11,2013-02-13 21:42:00,
2013-02-13 23:52:00,50.5,45.2,28.66,SW,225,0.0,0.0,82,0.00,,,0.37,open2300-1.11,2013-02-13 21:52:00,